This demonstration page uses our WeatherBlox Daily Observations layout. Learn more.

Left ArrowRight Arrow

38.88101, -77.10428

Hourly Observations for January 3, 2022

Temp ( °F °C ) Dew Point ( °F °C ) Humidity (%) Winds ( mph kmh ) Pressure ( in mb ) Visibility ( mi km ) Precip ( " mm )
12:52 am 00:52 Cloudy with Light Rain 44 6.7 34 1.1 68 68 NNW 14 22 30.03 1017 10 16 0.00 0.00
1:42 am 01:42 Cloudy with Light Rain 43 6.1 35 1.7 74 74 N 14 22 30.03 1017 10 16 0.01 0.25
1:52 am 01:52 Cloudy with Light Rain 43 6.1 35 1.7 74 74 NNE 16 26 30.02 1017 10 16 0.01 0.25
2:52 am 02:52 Cloudy with Light Rain 40 4.4 34 1.1 79 79 NNE 12 19 30.04 1017 7 11 0.04 1.02
3:02 am 03:02 Cloudy with Light Rain 40 4.4 34 1.1 79 79 NNE 13 20 30.04 1017 8 13 0.01 0.25
3:31 am 03:31 Cloudy with Light Rain/Snow 39 3.9 34 1.1 82 82 NE 15 24 30.05 1018 9 14 0.06 1.52
3:52 am 03:52 Cloudy with Light Rain/Snow 38 3.3 33 0.6 83 83 NE 13 20 30.06 1018 5 8 0.08 2.03
4:07 am 04:07 Cloudy 37 2.8 33 0.6 86 86 NE 14 22 30.05 1018 6 10 0.02 0.51
4:20 am 04:20 Cloudy with Light Rain/Snow 37 2.8 33 0.6 86 86 NE 13 20 30.05 1018 7 11 0.04 1.02
4:33 am 04:33 Cloudy with Light Snow 36 2.2 32 0 86 86 NNE 16 26 30.04 1017 5 8 0.05 1.27
4:49 am 04:49 Cloudy with Light Snow 36 2 30 -1 81 81 NNE 16 26 30.05 1018 3 4 0.08 2.03
4:52 am 04:52 Cloudy with Light Snow 35 1.7 31 -0.6 85 85 NNE 15 24 30.04 1017 3 4 0.08 2.03
4:58 am 04:58 Cloudy with Light Snow 34 1.1 32 0 92 92 NNE 13 20 30.05 1018 3 4 0.01 0.25
5:08 am 05:08 Cloudy with Light Snow 34 1.1 31 -0.6 89 89 NNE 13 20 30.05 1018 2 3 0.03 0.76
5:18 am 05:18 Cloudy with Light Snow 34 1.1 31 -0.6 89 89 NNE 16 26 30.04 1017 2 2 0.04 1.02
5:52 am 05:52 Cloudy with Light Snow 34 1.1 31 -0.6 89 89 NNE 18 30 30.02 1017 2 2 0.07 1.78
6:03 am 06:03 Cloudy with Light Snow 34 1.1 31 -0.6 89 89 NNE 18 30 30.01 1016 2 3 0.01 0.25
6:52 am 06:52 Cloudy with Light Snow 34 1.1 31 -0.6 89 89 NNE 13 20 30.04 1017 2 3 0.03 0.76
6:58 am 06:58 Cloudy with Light Snow 34 1.1 30 -1.1 85 85 NNE 15 24 30.06 1018 1 2 0.00 0.00
7:03 am 07:03 Cloudy with Light Snow 34 1.1 30 -1.1 85 85 NNE 16 26 30.07 1018 1 2 0.01 0.25
7:12 am 07:12 Cloudy with Light Snow 34 1.1 30 -1.1 85 85 NNE 14 22 30.07 1018 1 1 0.02 0.51
7:22 am 07:22 Cloudy with Light Snow 33 0.6 31 -0.6 92 92 NNE 15 24 30.05 1018 1 1 0.04 1.02
7:30 am 07:30 Mostly Cloudy with Snow 33 0.6 31 -0.6 92 92 NNE 17 28 30.04 1017 1 1 0.07 1.78
7:39 am 07:39 Mostly Cloudy with Heavy Snow 33 0.6 30 -1.1 89 89 N 18 30 30.05 1018 0 0 0.08 2.03
7:52 am 07:52 Mostly Cloudy with Snow 33 0.6 31 -0.6 92 92 N 14 22 30.07 1018 1 1 0.10 2.54
8:52 am 08:52 Cloudy with Snow 32 0 30 -1.1 92 92 N 20 31 30.07 1018 1 1 0.19 4.83
9:14 am 09:14 Mostly Cloudy with Heavy Snow 32 0 30 -1.1 92 92 N 23 37 30.05 1018 0 0 0.04 1.02
9:21 am 09:21 Mostly Cloudy with Heavy Snow 32 0 31 -0.6 96 96 N 21 33 30.04 1017 1 2 0.05 1.27
9:28 am 09:28 Mostly Cloudy with Heavy Snow 32 0 31 -0.6 96 96 NNE 18 30 30.08 1019 1 2 0.07 1.78
9:37 am 09:37 Mostly Cloudy with Heavy Snow 32 0 31 -0.6 96 96 N 17 28 30.07 1018 0 0 0.09 2.29
9:48 am 09:48 Mostly Cloudy with Heavy Snow 32 0 30 -1 93 93 N 20 31 30.06 1018 0 0 0.12 3.05
9:52 am 09:52 Mostly Cloudy with Heavy Snow 32 0 31 -0.6 96 96 N 18 30 30.06 1018 0 0 0.13 3.30
10:17 am 10:17 Mostly Cloudy with Heavy Snow 32 0 31 -0.6 96 96 N 22 35 30.06 1018 1 2 0.06 1.52
10:41 am 10:41 Mostly Cloudy with Heavy Snow 32 0 31 -0.6 96 96 NNE 21 33 30.02 1017 0 0 0.12 3.05
10:52 am 10:52 Mostly Cloudy with Heavy Snow 32 0 31 -0.6 96 96 NNE 21 33 30.03 1017 1 2 0.15 3.81
11:05 am 11:05 Mostly Cloudy with Heavy Snow 31 -0.6 30 -1.1 96 96 N 28 44 30.03 1017 0 0 0.04 1.02
11:16 am 11:16 Mostly Cloudy with Snow 31 -0.6 30 -1.1 96 96 N 29 46 30.04 1017 0 0 0.06 1.52
11:23 am 11:23 Mostly Cloudy with Heavy Snow 30 -1.1 30 -1.1 100 100 N 24 39 30.04 1017 0 0 0.06 1.52
11:41 am 11:41 Mostly Cloudy with Heavy Snow 30 -1.1 30 -1.1 100 100 N 18 30 30.05 1018 0 0 0.07 1.78
11:52 am 11:52 Mostly Cloudy with Snow 30 -1.1 30 -1.1 100 100 N 18 30 30.07 1018 0 0 0.08 2.03
12:08 pm 12:08 Cloudy with Snow 30 -1.1 29 -1.7 96 96 N 20 31 30.06 1018 1 1 0.02 0.51
12:16 pm 12:16 Mostly Cloudy with Heavy Snow 29 -1.7 28 -2.2 96 96 N 21 33 30.05 1018 0 0 0.03 0.76
12:23 pm 12:23 Cloudy with Heavy Snow 29 -1.7 28 -2.2 96 96 N 23 37 30.05 1018 0 0 0.03 0.76
12:32 pm 12:32 Cloudy with Heavy Snow 29 -1.7 28 -2.2 96 96 N 23 37 30.02 1017 1 1 0.03 0.76
12:42 pm 12:42 Cloudy with Light Snow 29 -1.7 29 -1.7 100 100 N 17 28 30.00 1016 1 2 0.03 0.76
12:52 pm 12:52 Windy with Snow Likely 29 -1.7 29 -1.7 100 100 N 21 33 29.98 1015 2 3 0.03 0.76
1:04 pm 13:04 Windy with Snow Likely 29 -1.7 27 -2.8 92 92 N 28 44 29.96 1015 3 5 0.00 0.00
1:27 pm 13:27 Cloudy 28 -2.2 25 -3.9 88 88 N 22 35 30.04 1017 9 14 0.00 0.00
1:52 pm 13:52 Cloudy 28 -2.2 23 -5 81 81 NNW 23 37 30.06 1018 10 16 0.00 0.00
2:52 pm 14:52 Mostly Cloudy 29 -1.7 21 -6.1 72 72 NNW 17 28 30.10 1019 10 16 0.00 0.00
3:52 pm 15:52 Mostly Cloudy 31 -0.6 21 -6.1 67 67 NNW 16 26 30.14 1021 10 16 0.00 0.00
4:52 pm 16:52 Partly Cloudy 30 -1.1 20 -6.7 66 66 NNW 12 19 30.17 1022 10 16 0.00 0.00
5:52 pm 17:52 Mostly Clear 28 -2.2 21 -6.1 75 75 NNW 9 15 30.20 1023 10 16 0.00 0.00
6:52 pm 18:52 Mostly Clear 30 -1.1 19 -7.2 64 64 NNW 14 22 30.22 1024 10 16 0.00 0.00
7:52 pm 19:52 Mostly Clear 30 -1.1 18 -7.8 61 61 NNW 9 15 30.26 1025 10 16 0.00 0.00
8:52 pm 20:52 Mostly Clear 28 -2.2 18 -7.8 66 66 NNW 6 9 30.29 1026 10 16 0.00 0.00
9:52 pm 21:52 Mostly Clear 28 -2.2 18 -7.8 66 66 NNW 8 13 30.31 1027 10 16 0.00 0.00
10:52 pm 22:52 Mostly Clear 27 -2.8 18 -7.8 69 69 NNW 10 17 30.32 1027 10 16 0.00 0.00
11:52 pm 23:52 Clear 29 -1.7 18 -7.8 63 63 NW 15 24 30.34 1028 10 16 0.00 0.00

Powered by AerisWeather